Location: ???????
(60.4260°N, 46.9069°E)
Time: 18:26:00
(UTC+00:00)

Cosmos 1937 Rocket - Pass Details

Date: 30 March 2020
Orbit: 747 x 780 km, 74.0° (Epoch: 06 June)

Event Time Altitude Azimuth Distance (km) Brightness Sun altitude
Exits shadow 00:54:47 - 198° (SSW) 2,730 5.9 -11.0°
Reaches altitude 10° 00:55:53 10° 196° (SSW) 2,306 5.6 -10.9°
Maximum altitude 01:01:04 65° 116° (ESE) 841 3.9 -10.3°
Drops below altitude 10° 01:06:13 10° 36° (NE) 2,298 7.1 -9.8°
Sets 01:08:36 0° 34° (NNE) 3,222 7.9 -9.5°
